Lapse_Rate
6.7 6.5 6.7 6.6 6.6 6.5 6.5 6.4 6.4 6.2 6.3 6.2 6.0 5.8 5.6 5.6 5.6 5.9 5.8 5.5 5.4 5.2 5.4 5.5 5.4 5.3 5.4 5.3 5.4 5.4 5.4 5.6 5.6 5.5 5.5 5.3 5.3 5.5 5.5 5.6 5.6 5.5 5.4
6.7 6.6 6.6 6.6 6.6 6.7 6.6 6.4 6.2 6.3 6.3 6.2 6.1 6.0 5.7 5.8 5.6 5.8 5.8 5.7 5.5 5.2 5.2 5.3 5.3 5.3 5.2 5.2 5.2 5.4 5.3 5.5 5.6 5.7 5.5 5.4 5.3 5.4 5.6 5.6 5.5 5.3 5.4
6.5 6.3 6.5 6.6 6.5 6.5 6.6 6.5 6.3 6.2 6.2 6.2 6.1 6.0 6.1 6.0 5.9 5.8 5.7 5.7 5.6 5.4 5.2 5.2 5.3 5.3 5.3 5.3 5.3 5.3 5.4 5.5 5.5 5.5 5.6 5.5 5.5 5.5 5.6 5.8 5.6 5.2 5.3
6.5 6.3 6.5 6.5 6.5 6.5 6.5 6.3 6.2 6.0 6.0 6.2 6.2 6.2 6.2 6.0 6.1 6.0 5.8 5.7 5.5 5.6 5.4 5.2 5.2 5.4 5.4 5.2 5.3 5.3 5.4 5.6 5.5 5.6 5.7 5.6 5.5 5.5 5.6 5.7 5.6 5.5 5.4
6.2 6.2 6.4 6.5 6.5 6.5 6.5 6.4 6.2 6.1 6.0 6.0 6.0 6.1 6.1 6.1 6.1 6.1 5.8 5.8 5.6 5.4 5.6 5.3 5.2 5.4 5.5 5.3 5.4 5.2 5.5 5.5 5.6 5.6 5.6 5.7 5.7 5.6 5.5 5.6 5.6 5.6 5.6
6.1 6.4 6.3 6.4 6.4 6.5 6.7 6.8 6.7 6.5 6.2 6.1 6.0 6.0 6.0 6.1 6.1 6.2 6.0 5.9 5.7 5.5 5.8 5.6 5.3 5.3 5.4 5.4 5.4 5.4 5.5 5.5 5.6 5.6 5.7 5.6 5.6 5.7 5.6 5.6 5.7 5.6 5.6
6.2 6.4 6.4 6.4 6.4 6.6 6.8 6.9 6.9 6.8 6.5 6.2 6.1 6.1 6.1 6.2 6.1 6.1 6.1 5.9 6.0 5.7 5.8 5.8 5.6 5.5 5.5 5.4 5.3 5.3 5.4 5.5 5.5 5.6 5.4 5.7 5.6 5.7 5.7 5.6 5.6 5.6 5.5
6.5 6.7 6.3 6.3 6.5 6.6 6.7 6.9 6.9 6.9 6.7 6.5 6.5 6.5 6.4 6.5 6.5 6.3 6.2 6.1 6.0 5.8 5.7 5.8 5.5 5.6 5.7 5.5 5.5 5.5 5.4 5.6 5.4 5.3 5.5 5.6 5.7 5.6 5.7 5.7 5.7 5.6 5.5
6.2 6.8 6.4 6.4 6.4 6.5 6.6 6.7 6.7 6.8 6.7 6.7 6.8 6.9 6.8 6.6 6.7 6.7 6.4 6.2 6.2 6.1 5.7 5.8 5.7 5.6 5.7 5.7 5.5 5.6 5.4 5.4 5.6 5.2 5.2 5.5 5.6 5.7 5.7 5.8 5.7 5.7 5.6
6.7 6.7 6.2 6.4 6.4 6.4 6.4 6.3 6.3 6.6 6.6 6.7 6.7 7.0 7.0 6.7 6.5 6.5 6.5 6.3 6.3 6.2 6.1 5.8 5.9 5.7 5.7 5.9 5.7 5.7 5.5 5.4 5.4 4.9 5.2 5.4 5.6 5.6 5.7 5.8 5.7 5.6 5.6
6.5 6.6 6.5 6.4 6.3 6.3 6.2 6.2 6.3 6.3 6.5 6.5 6.7 6.8 6.5 6.4 6.4 6.3 6.6 6.5 6.4 6.1 6.1 6.0 6.1 5.9 5.9 6.0 5.9 5.6 5.5 5.3 5.1 5.6 5.9 5.8 5.9 5.7 5.7 5.8 5.8 5.6 5.6
6.7 6.6 6.6 6.4 6.4 6.2 6.0 6.1 6.3 6.6 6.5 6.5 6.6 6.5 6.2 6.6 6.3 5.8 5.8 6.0 6.1 6.1 6.0 6.1 6.3 6.0 5.8 5.9 5.9 5.6 5.4 5.2 5.2 5.4 5.7 5.7 5.7 5.8 5.8 5.9 5.8 5.8 5.7
7.0 7.0 6.9 6.6 6.3 6.2 6.6 6.4 6.5 6.4 6.3 6.3 6.4 6.2 6.2 6.1 5.9 5.9 5.8 5.6 5.9 6.0 6.1 6.1 6.3 6.1 5.9 5.9 5.7 5.7 5.3 5.5 5.5 5.6 5.7 5.5 5.6 5.6 5.6 5.7 5.8 5.8 5.8
6.9 6.6 6.6 6.6 6.6 6.5 6.3 6.1 6.1 6.4 6.2 6.0 6.1 6.1 5.9 5.9 5.9 6.2 5.9 5.7 5.7 5.8 6.0 5.9 6.2 6.2 6.0 5.8 5.9 5.6 5.5 5.4 5.8 5.7 5.5 5.5 5.5 5.6 5.7 5.7 5.9 5.8 5.7
6.4 6.4 6.4 6.5 6.6 6.7 6.3 5.6 5.5 6.1 6.3 6.1 6.1 5.8 5.7 5.8 6.1 6.0 5.9 5.7 5.4 5.6 5.7 5.8 6.1 6.0 5.8 5.7 5.7 5.7 5.7 5.5 5.5 5.6 4.9 5.5 5.7 5.5 5.7 5.7 5.7 5.7 5.8
6.8 6.8 6.7 6.5 6.3 6.7 6.8 6.5 6.5 6.6 6.3 6.1 6.2 6.1 6.2 6.2 5.9 5.8 5.7 5.5 5.3 5.6 5.7 5.7 5.9 6.1 5.9 5.8 5.6 5.6 5.7 5.4 5.5 5.8 5.6 5.6 5.6 5.4 5.6 5.6 5.6 5.7 5.8
6.8 6.6 6.6 6.4 6.3 6.6 6.7 6.7 6.4 6.3 6.3 6.1 6.3 6.2 6.2 6.3 5.9 5.8 5.8 5.4 5.8 5.8 5.8 5.8 5.8 6.4 6.1 5.7 5.6 5.8 5.6 5.6 5.5 5.7 5.5 5.5 5.6 5.6 5.6 5.5 5.5 5.7 5.8
6.8 6.6 6.6 6.8 6.6 6.4 6.2 6.2 6.1 6.1 6.2 6.2 6.2 6.4 6.4 6.2 6.1 5.8 5.8 5.8 5.5 5.8 5.9 5.9 6.2 6.3 6.2 5.8 5.6 5.5 5.6 5.5 5.6 5.6 5.5 5.2 5.3 5.6 5.7 5.6 5.6 5.6 5.6
7.0 6.7 6.6 6.6 6.7 6.5 6.3 6.2 6.1 6.1 6.0 6.3 6.4 6.5 6.2 6.4 6.0 5.9 6.0 5.9 5.8 5.8 5.7 5.9 5.9 6.0 6.3 5.9 5.7 5.7 5.7 5.6 5.5 5.4 5.5 5.4 5.4 5.6 5.3 5.5 5.6 5.4 5.4
7.3 6.8 6.5 6.5 6.4 6.3 6.2 6.2 6.4 6.3 6.4 6.2 5.9 5.9 6.0 6.1 6.2 5.8 5.9 5.8 5.8 5.6 5.6 5.7 5.8 6.1 6.2 5.8 6.0 5.7 5.6 5.7 5.6 5.6 5.5 5.7 5.5 5.4 5.5 5.6 5.6 5.3 5.3
7.5 7.0 6.7 6.6 6.4 6.4 6.4 6.3 6.3 6.3 6.2 6.1 5.9 5.6 5.9 5.8 5.7 5.9 5.8 5.9 5.8 5.6 5.7 5.7 5.7 5.7 6.0 5.9 5.8 5.7 5.5 5.6 5.8 5.8 5.8 5.8 5.7 5.5 5.5 5.3 5.3 5.3 5.1
7.1 7.2 6.7 6.7 6.6 6.6 6.5 6.4 6.2 6.1 6.3 5.9 5.7 5.4 5.3 6.0 5.5 5.7 5.8 5.8 5.9 5.8 5.8 5.7 5.8 5.7 5.8 5.5 5.6 5.6 5.5 5.5 5.8 6.0 5.8 5.8 5.8 5.7 5.5 5.4 5.3 5.5 5.5
7.1 6.9 7.0 7.0 6.9 6.8 6.6 6.4 6.3 6.3 6.0 5.7 5.3 5.0 4.9 5.5 5.7 5.4 5.8 5.6 5.8 5.8 5.7 5.6 5.6 5.4 5.6 5.5 5.4 5.5 5.6 5.6 5.8 5.9 5.8 5.9 5.9 5.8 5.7 5.7 5.6 5.6 5.5
7.4 7.2 7.2 7.3 7.3 7.0 6.7 6.5 6.3 6.3 5.6 5.2 5.1 4.8 4.9 5.1 5.4 5.6 5.7 5.6 5.6 5.8 5.7 5.6 5.2 5.1 5.5 5.5 5.2 5.3 5.3 5.5 5.5 5.7 6.0 5.8 5.9 5.9 5.7 5.6 5.4 5.6 5.5
7.7 7.9 7.1 7.5 7.3 7.4 7.2 6.6 6.3 6.1 5.6 5.4 5.3 5.2 5.1 5.1 5.3 5.5 5.6 5.4 5.5 5.6 5.7 5.5 5.4 5.5 5.5 5.3 4.9 5.2 5.4 5.6 5.6 5.7 5.8 5.8 5.7 5.8 5.6 5.6 5.6 5.5 5.3
6.7 7.2 7.7 7.6 7.4 7.3 7.2 6.6 6.1 5.8 5.5 5.4 5.4 5.4 5.2 5.3 5.4 5.6 5.6 5.4 5.5 5.5 5.6 5.4 5.4 5.6 5.4 5.2 5.1 5.1 5.2 5.1 5.6 5.5 5.6 5.5 5.5 5.5 5.7 5.5 5.6 5.5 5.4
Wind_Speed
18 19 16 14 15 15 15 14 15 15 15 15 14 13 13 13 13 12 13 13 12 11 11 10 9 8 4 6 7 11 15 17 18 18 18 16 14 13 14 16 19 18 17
22 22 18 15 14 13 12 13 14 16 15 15 15 14 13 12 12 10 10 13 11 9 11 10 9 9 5 7 9 11 14 17 16 17 17 15 13 11 7 6 22 17 16
18 20 19 16 14 12 10 10 15 16 16 15 15 15 13 12 12 8 10 10 9 8 9 9 8 7 7 8 10 9 14 16 15 18 19 15 12 10 13 18 20 18 17
18 18 18 16 14 12 11 12 15 16 15 15 14 14 14 11 11 10 7 7 8 6 8 9 8 7 7 9 11 9 12 14 13 13 13 17 14 13 14 16 18 18 17
16 18 22 16 15 13 12 12 13 15 15 15 14 13 13 12 10 10 8 5 5 5 6 8 8 8 8 9 10 10 11 11 13 13 11 7 17 13 14 15 16 16 18
16 25 24 18 15 13 12 13 14 14 14 15 14 13 11 13 11 9 8 6 4 5 5 7 8 9 9 10 9 11 11 11 11 7 8 15 17 15 14 15 16 15 18
19 22 22 20 15 14 12 12 13 15 15 14 14 14 13 11 11 9 7 6 5 4 4 7 9 10 10 11 12 11 12 11 9 12 9 17 16 16 12 13 17 17 17
17 18 18 19 17 16 12 13 14 15 15 15 14 14 12 11 11 11 9 7 6 5 5 6 10 11 9 10 10 12 12 11 12 12 16 16 18 16 15 15 15 16 16
14 16 15 15 14 15 14 14 15 16 15 15 15 14 13 12 10 10 9 7 7 7 6 7 9 10 11 10 11 11 13 12 11 4 16 16 18 16 16 15 15 15 16
13 14 12 14 15 13 14 16 15 16 15 14 14 14 13 13 11 10 8 9 8 9 8 8 10 11 11 10 11 12 13 12 11 10 15 16 17 17 16 15 16 14 16
9 10 10 11 12 14 15 15 16 17 16 15 14 15 14 11 13 12 12 10 8 8 9 9 11 11 12 11 12 12 11 10 13 8 13 27 19 18 16 16 14 16 15
7 8 9 10 10 11 12 13 11 13 13 9 9 11 10 12 10 7 8 7 7 8 8 9 10 11 12 12 12 13 10 13 7 12 12 24 20 18 17 16 16 15 16
7 7 10 8 9 8 8 10 7 7 7 8 8 5 10 1 6 6 7 8 8 8 8 10 10 10 13 12 11 13 14 9 4 11 17 20 19 17 16 15 16 16 15
13 12 10 10 7 7 8 5 10 7 9 8 10 10 7 4 4 4 5 6 5 6 6 4 7 10 9 14 13 12 12 7 10 10 16 20 19 17 17 16 16 16 16
8 9 8 11 9 8 11 17 21 7 10 11 11 11 8 4 3 6 5 5 4 7 5 5 5 4 5 9 10 15 13 10 13 10 13 19 19 18 17 16 16 17 16
9 8 8 6 5 6 6 12 8 10 8 1 11 9 11 7 5 4 4 4 4 6 8 4 3 3 4 6 4 10 12 12 13 14 18 17 21 18 17 17 17 18 17
11 10 10 8 7 7 7 7 4 6 6 10 13 9 10 11 7 8 5 5 5 8 7 6 3 3 3 4 7 6 8 10 12 7 11 15 16 20 18 17 17 18 17
11 11 12 10 9 6 5 4 3 4 5 4 8 9 16 12 12 6 5 6 7 4 5 3 3 3 4 4 4 4 4 11 6 13 16 8 16 16 18 17 15 15 16
8 9 9 8 10 9 5 4 4 4 3 4 7 12 10 13 12 10 6 6 11 4 3 3 2 3 2 3 4 2 2 4 4 9 6 17 17 12 15 19 14 15 17
10 8 6 5 5 6 4 3 3 4 6 6 4 8 11 13 15 10 7 6 11 6 4 3 4 4 2 4 3 4 5 5 5 4 4 5 12 14 16 15 14 11 20
12 10 7 6 7 5 4 4 4 6 5 5 0 4 7 8 11 9 7 7 4 5 6 6 3 3 2 1 4 2 4 4 6 5 4 4 5 12 13 11 11 9 13
12 9 7 6 6 5 3 3 4 2 4 5 3 5 7 10 12 8 8 8 8 6 7 7 5 2 2 4 3 0 2 4 6 6 4 4 6 11 10 12 14 16 19
11 9 8 7 5 5 5 3 2 3 4 3 4 4 6 9 12 11 9 8 7 7 6 7 6 6 3 3 5 3 2 3 1 2 5 4 5 4 7 12 16 19 21
6 7 7 7 7 3 2 3 5 6 4 3 3 4 5 9 8 10 9 9 8 6 9 7 6 4 4 3 2 5 7 3 1 2 2 3 4 5 6 6 13 17 20
8 10 8 7 7 4 1 3 2 3 5 5 5 7 7 6 7 8 9 10 9 7 9 8 8 6 5 4 6 1 6 5 4 3 1 1 4 4 5 6 7 10 14
15 12 10 7 5 2 2 6 5 5 8 6 6 5 5 5 5 7 8 9 9 9 9 8 8 8 7 8 3 4 4 4 2 1 1 2 4 4 5 6 6 8 11
Wind_Direction
131 139 142 136 132 135 138 142 142 144 140 135 129 121 118 113 110 108 110 109 119 121 120 126 122 115 91 85 108 107 110 110 115 112 108 108 115 119 128 130 108 105 106
129 141 138 136 135 133 141 150 153 149 147 145 137 132 129 124 119 122 127 112 111 116 119 120 121 126 104 106 123 130 124 123 126 123 121 119 118 109 110 137 100 112 112
131 131 138 133 129 123 129 147 156 154 155 153 144 141 138 135 129 132 140 124 124 125 128 129 126 127 119 122 123 132 135 138 144 142 142 131 119 112 107 109 115 119 119
130 140 132 129 124 114 121 136 148 155 159 157 150 145 142 138 137 144 138 133 134 139 143 142 142 143 136 138 138 142 152 151 154 159 181 130 133 120 117 121 121 125 124
132 143 127 127 121 114 111 125 142 151 158 160 155 151 144 141 147 151 138 140 159 150 156 156 160 159 152 153 152 151 167 164 168 175 210 141 128 131 126 124 129 131 135
135 118 127 129 125 122 116 117 139 150 157 160 160 154 152 148 154 157 156 169 190 182 168 161 164 166 169 163 164 165 185 187 178 198 108 121 119 139 144 147 139 135 126
100 118 128 131 129 127 124 123 133 153 160 161 162 160 159 160 160 168 166 167 179 185 193 165 168 164 176 174 171 177 215 197 200 183 142 111 130 143 144 139 135 138 134
123 117 128 132 138 131 134 134 139 146 158 163 167 163 166 163 174 166 174 177 173 194 198 196 180 167 185 175 181 187 219 224 183 230 138 125 145 141 143 141 143 144 140
124 118 125 133 137 135 145 147 147 152 162 166 169 170 168 175 182 179 181 189 174 194 195 197 190 177 181 180 187 196 224 237 260 271 126 133 146 148 150 150 152 153 147
122 125 128 142 152 156 155 155 159 163 168 174 177 180 179 178 189 195 191 204 181 199 200 199 198 189 181 185 189 201 229 246 256 213 136 143 153 154 157 159 158 159 154
133 118 145 149 156 164 159 166 162 166 174 185 185 188 182 188 192 191 198 196 184 196 201 200 200 190 176 183 196 201 228 244 239 97 136 147 158 155 163 164 164 163 165
153 132 142 165 160 167 163 162 167 169 175 178 188 192 211 213 171 197 205 164 202 189 200 197 202 185 189 183 191 201 218 234 206 120 141 149 157 160 166 171 171 170 171
158 155 146 172 173 184 140 163 175 180 189 190 190 188 219 211 126 165 170 214 204 203 197 191 190 193 202 220 196 192 216 243 274 147 156 152 158 163 170 174 177 179 178
174 168 159 168 162 162 142 14 205 201 209 197 194 189 172 207 201 197 180 208 210 180 209 192 191 205 255 208 187 193 206 199 227 131 157 167 163 167 174 183 184 188 187
135 131 141 164 166 157 138 167 228 203 207 207 186 179 180 199 225 197 214 197 212 215 198 187 211 211 205 216 219 218 201 195 214 172 172 180 173 174 182 185 193 196 198
143 143 137 162 150 140 170 166 191 203 222 232 239 184 191 211 203 217 198 211 216 227 206 182 197 196 208 220 217 230 213 203 214 219 185 183 181 183 187 192 195 203 201
154 159 153 168 174 173 182 173 195 215 186 173 207 197 197 197 225 214 212 211 206 191 225 178 172 192 216 215 223 204 207 213 204 189 175 189 188 187 194 200 202 209 201
156 156 159 181 179 176 185 186 206 226 186 207 221 211 197 198 207 209 222 195 194 208 198 192 169 200 216 220 208 213 211 221 225 204 188 159 198 187 197 201 208 211 204
147 151 166 170 174 171 188 210 196 243 259 250 214 205 188 188 208 215 233 223 178 214 178 198 193 178 219 236 226 198 267 198 202 237 211 172 199 175 180 197 202 224 215
161 155 164 168 176 162 183 226 223 235 215 232 244 183 199 197 190 218 234 232 181 187 188 197 190 213 199 203 220 211 227 203 195 246 267 195 184 180 177 164 186 235 229
159 159 159 181 170 174 190 203 239 241 254 259 100 358 221 228 213 198 221 230 205 202 180 185 192 219 236 185 222 256 252 251 221 205 215 223 226 185 169 172 167 208 284
148 151 168 192 183 187 209 229 242 234 243 260 301 273 266 223 228 210 206 230 203 202 189 185 182 144 186 206 194 152 258 237 230 210 175 219 215 187 179 174 175 201 218
131 160 181 172 206 209 230 250 279 283 272 280 252 258 247 253 239 214 204 217 220 191 193 184 181 175 167 212 212 202 231 225 182 196 193 202 236 190 172 187 193 201 207
155 141 158 177 194 178 251 254 240 271 281 262 253 235 234 243 235 224 207 209 221 197 200 179 178 180 143 225 237 252 249 203 167 247 182 208 201 197 186 192 208 190 197
172 134 120 126 108 118 280 284 315 298 273 285 268 256 236 222 229 227 207 204 209 207 203 183 175 181 162 188 213 210 247 222 203 252 64 231 239 186 188 189 201 196 200
306 132 127 111 127 111 10 41 24 309 310 302 291 258 237 211 213 217 216 203 201 207 188 182 180 187 180 208 187 260 270 245 220 215 259 209 202 197 196 201 175 188 199